Torna al catalogo

STARLINK-30942

AttivoComunicazioniVLEO
NORAD 58441·PAYLOAD·🇺🇸 United States

Lanciato Nov 28, 2023 da Cape Canaveral Space Force Station

Loading…

Prossimi Passaggi (prossime 24 ore)

TLE

AggiornatoSource: CelesTrak SupGP

Epoca: Sep 14, 2026, 21:32 UTC

1 58441C 23183E   26257.89770833  .00050294  00000+0  18221-2 0  2578
2 58441  43.0041  52.6591 0001415 270.2823 179.5180 15.27545147    12

Traccia STARLINK-30942 in tempo reale con AllMySat

Download on the App Store